Weather in Derevnya Pervy Voin

Russia / Oryol Oblast     53°10′51″N   36°24′31″E
temp.,
°C
wind,
m/s
gust,
m/s
humid.,
%
clouds,
%
prec.,
mm/h
press.,
hPa
HPBL,
m
6 may, thu
thu600:00+9s5148263 0.0 1010318
03:00+10ssw61480100 0.0 1009354
06:00+11ssw71773100 0.0 1008643
09:00+12ssw81573100 0.0 10081225
12:00+13s101869100 0.4 10071631
15:00+11ssw81773100 0.5 10081413
18:00+10sw61289100 1.0 1008707
21:00+7sw3595100 4.6 1010167
7 may, fri
fri700:00+7sw3695100 0.2 1011165
03:00+6w3792100 0.3 1012193
06:00+5wsw358983 0.0 1013117
09:00+10wsw466211 0.0 1014735
12:00+13wsw46445 0.0 10151847
15:00+14sw5744100 0.0 10142144
18:00+13s5960100 0.0 1014597
21:00+9sse41168100 0.0 1013242
8 may, sat
sat800:00+10sse71661100 0.0 1011553
03:00+9sse81676100 0.7 1009808
06:00+9sse101889100 4.4 1006913
09:00+9sse71595100 12.4 1004701
12:00+10s81595100 3.9 1003855
15:00+9wsw61191100 4.9 1005724
18:00+11wsw81175100 0.3 10061098
21:00+4w81394100 0.3 1010615
9 may, sun
sun900:00+4w61190100 0.1 1013654
03:00+3w512905 0.1 1015435
06:00+2w411920 0.0 1017361
09:00+7nw687314 0.0 1019955
12:00+9nw685498 0.1 10201999
15:00+11nnw7850100 0.1 10222403
18:00+10nnw48585 0.0 10231691
21:00+5nnw33721 0.0 102627
10 may, mon
mon1000:00+4nw33755 0.0 102829
03:00+3nw348015 0.0 103053
06:00+3n357929 0.0 103193
09:00+10n346070 0.0 1031439
12:00+13nne23465 0.0 10311453
15:00+14n23445 0.0 10311679
18:00+14nne23560 0.0 1030615
21:00+8ne22650 0.0 103114